Total_Precipitation_Accumulation
0.99 1.00 0.96 1.04 1.02 1.02 1.07 1.05 0.92 0.92 0.89 0.78 0.75 0.77 0.84 0.86 1.00 1.12 1.39 1.89 2.54 3.16 3.34 3.08 2.60 2.30 2.19 2.16 2.10 2.08 2.03 2.05 2.22 2.40 2.30 2.21 2.27 2.30 2.24 2.53 2.77 3.04 3.19
0.82 0.95 0.97 1.06 1.01 1.04 1.10 1.01 0.96 0.99 0.99 0.87 0.81 0.82 0.82 0.86 0.94 1.08 1.23 1.53 1.93 2.56 3.21 3.38 3.04 2.66 2.42 2.41 2.43 2.45 2.24 2.10 2.12 2.35 2.40 2.23 2.21 2.14 2.12 2.29 2.60 2.78 3.14
0.78 0.91 1.00 1.02 1.02 1.05 1.05 1.07 1.08 1.05 0.98 0.90 0.91 0.88 0.84 0.85 1.01 1.14 1.20 1.37 1.43 1.57 2.25 3.01 3.32 3.17 2.91 2.89 2.81 2.65 2.47 2.28 2.13 2.21 2.34 2.25 2.17 1.98 2.06 2.13 2.22 2.30 2.72
0.83 1.06 1.13 1.02 1.07 1.18 1.21 1.24 1.21 1.13 1.06 1.05 1.09 1.06 0.98 1.00 1.15 1.23 1.18 1.16 1.23 1.16 1.39 1.89 2.37 2.75 3.08 3.20 3.17 2.96 2.71 2.50 2.20 2.14 2.17 2.16 2.06 1.87 1.91 2.02 2.06 2.13 2.31
1.02 1.22 1.30 1.18 1.16 1.32 1.31 1.22 1.27 1.33 1.29 1.33 1.25 1.27 1.24 1.23 1.22 1.15 1.13 1.20 1.25 1.25 1.32 1.28 1.50 1.86 2.52 3.07 3.36 3.51 3.18 2.94 2.61 2.39 2.28 2.10 1.96 1.86 1.85 1.88 1.92 2.03 2.08
1.22 1.39 1.53 1.48 1.42 1.56 1.59 1.48 1.61 1.69 1.61 1.67 1.54 1.45 1.39 1.36 1.29 1.27 1.25 1.31 1.43 1.34 1.39 1.35 1.33 1.18 1.57 2.27 2.92 3.38 3.39 3.25 2.98 2.60 2.42 2.07 1.94 1.81 1.76 1.76 1.81 1.94 2.03
1.62 1.75 1.74 1.96 2.01 2.00 2.04 2.01 2.19 2.25 1.98 1.85 2.22 2.17 1.76 1.43 1.28 1.36 1.45 1.50 1.61 1.63 1.60 1.57 1.53 1.30 1.22 1.52 2.13 3.03 3.28 3.20 3.02 2.74 2.63 2.36 2.06 1.86 1.78 1.78 1.82 1.80 1.92
1.98 1.90 2.01 2.25 2.29 2.41 2.51 2.38 2.55 2.68 2.36 2.07 2.54 3.05 2.64 2.16 1.50 1.25 1.36 1.53 1.71 1.74 1.69 1.56 1.56 1.53 1.45 1.51 1.63 2.23 2.76 3.10 3.09 2.94 2.79 2.71 2.29 2.04 1.87 1.85 1.86 1.82 1.79
2.41 2.28 2.24 2.39 2.43 2.53 2.73 2.77 2.73 2.89 2.86 2.51 2.47 3.05 3.07 2.67 2.21 1.63 1.45 1.52 1.71 1.82 1.88 1.84 1.68 1.67 1.59 1.66 1.78 1.67 1.85 2.39 2.88 2.93 2.85 2.79 2.56 2.26 1.98 1.90 1.91 1.83 1.67
2.58 2.51 2.46 2.54 2.58 2.57 2.67 2.73 2.73 3.03 3.27 3.06 2.75 2.50 2.47 2.50 2.55 2.19 1.77 1.62 1.74 1.84 1.98 1.90 1.92 1.97 1.92 1.88 1.89 1.64 1.48 1.65 2.15 2.61 2.80 2.87 2.73 2.47 2.18 2.05 2.07 1.93 1.81
2.36 2.26 2.35 2.50 2.54 2.57 2.58 2.74 2.87 3.14 3.20 3.14 3.03 2.88 2.69 2.50 2.12 2.21 2.17 1.93 1.87 1.79 1.91 2.06 2.14 2.18 2.11 2.23 2.32 1.84 1.47 1.39 1.70 2.16 2.62 2.85 2.95 2.88 2.58 2.28 2.16 2.14 2.13
2.26 2.14 2.20 2.28 2.36 2.43 2.40 2.46 2.64 2.83 3.08 3.23 3.15 2.98 2.95 2.86 2.63 2.43 2.13 2.00 2.11 2.00 1.89 1.89 1.99 2.06 2.21 2.32 2.22 2.02 1.55 1.39 1.50 1.63 1.92 2.42 2.81 3.04 2.95 2.79 2.59 2.44 2.46
2.21 2.20 2.13 2.15 2.20 2.23 2.31 2.49 2.50 2.59 2.80 3.01 3.03 2.97 2.96 2.80 2.71 2.69 2.43 2.08 2.02 1.96 1.90 1.86 1.83 1.90 1.98 2.08 2.12 2.04 1.61 1.51 1.42 1.38 1.38 1.52 1.95 2.48 2.91 3.11 3.05 2.83 2.82
1.79 1.78 1.84 1.94 2.07 2.13 2.21 2.37 2.47 2.47 2.53 2.59 2.62 2.81 2.92 2.80 2.59 2.51 2.49 2.54 2.29 2.07 1.92 1.83 1.76 1.74 1.80 1.82 1.96 1.99 1.55 1.44 1.35 1.27 1.21 1.10 1.22 1.53 2.03 2.44 2.56 2.63 2.85
1.39 1.42 1.48 1.63 1.82 1.94 1.98 2.10 2.29 2.29 2.36 2.37 2.44 2.50 2.53 2.60 2.47 2.28 2.23 2.34 2.47 2.28 2.12 1.94 1.73 1.52 1.58 1.58 1.67 1.48 1.41 1.40 1.30 1.20 1.11 1.02 0.97 1.07 1.36 1.72 1.88 1.82 1.88
1.33 1.38 1.39 1.44 1.57 1.65 1.75 1.90 2.04 2.13 2.20 2.16 2.14 2.20 2.25 2.30 2.32 2.28 2.24 2.26 2.27 2.25 2.15 1.94 1.64 1.37 1.41 1.49 1.66 1.42 1.45 1.60 1.45 1.26 1.06 1.02 0.99 0.97 1.05 1.19 1.30 1.23 1.18
1.38 1.40 1.43 1.45 1.45 1.51 1.55 1.65 1.80 1.95 1.96 1.96 1.85 1.88 2.01 2.08 2.28 2.31 2.28 2.23 2.22 2.14 2.01 1.92 1.66 1.44 1.40 1.49 1.57 1.46 1.47 1.51 1.40 1.32 1.15 1.06 0.96 1.01 1.05 1.08 1.16 1.10 0.96
1.27 1.32 1.42 1.36 1.33 1.35 1.42 1.53 1.63 1.68 1.74 1.71 1.62 1.65 1.77 1.84 1.99 2.10 2.21 2.12 2.12 2.09 2.08 2.03 1.81 1.59 1.51 1.51 1.59 1.54 1.41 1.37 1.39 1.44 1.29 1.18 1.07 0.99 1.06 1.05 1.16 1.22 1.12
1.22 1.31 1.41 1.48 1.37 1.26 1.33 1.40 1.43 1.45 1.45 1.39 1.38 1.45 1.52 1.59 1.71 1.82 1.93 2.02 2.05 1.99 2.07 2.04 1.85 1.66 1.51 1.45 1.50 1.47 1.41 1.46 1.37 1.44 1.38 1.26 1.20 1.11 1.10 1.10 1.09 1.19 1.21
1.05 1.10 1.22 1.32 1.35 1.29 1.23 1.20 1.21 1.35 1.34 1.23 1.13 1.13 1.16 1.21 1.34 1.47 1.59 1.75 1.91 2.03 2.10 2.12 1.96 1.71 1.52 1.46 1.53 1.59 1.58 1.49 1.49 1.40 1.40 1.37 1.35 1.30 1.21 1.19 1.10 1.10 1.18
0.94 0.99 1.15 1.29 1.34 1.32 1.31 1.30 1.20 1.22 1.27 1.26 1.17 1.05 0.96 0.97 1.08 1.16 1.25 1.52 1.72 1.88 2.02 2.08 1.99 1.81 1.63 1.54 1.52 1.53 1.60 1.68 1.68 1.52 1.46 1.38 1.32 1.18 1.07 1.10 1.09 1.04 1.03
0.88 0.89 0.97 1.10 1.23 1.20 1.39 1.44 1.33 1.19 1.18 1.17 1.17 1.13 1.10 1.06 0.94 0.89 0.95 1.11 1.34 1.54 1.73 1.86 1.90 1.74 1.57 1.53 1.58 1.60 1.60 1.65 1.71 1.56 1.50 1.57 1.50 1.35 1.20 1.09 1.16 1.08 1.02
0.85 0.85 0.91 1.05 1.19 1.37 1.44 1.26 1.33 1.28 1.20 1.18 1.14 1.13 1.15 1.11 1.15 1.03 0.97 0.94 0.96 1.14 1.39 1.59 1.62 1.56 1.63 1.57 1.54 1.50 1.49 1.48 1.51 1.54 1.54 1.57 1.55 1.42 1.24 1.18 1.27 1.20 1.14
0.85 0.86 0.90 0.99 1.06 1.30 1.40 1.22 1.41 1.41 1.35 1.30 1.25 1.26 1.30 1.30 1.23 1.34 1.29 1.15 1.05 1.04 1.16 1.10 1.18 1.46 1.59 1.62 1.62 1.64 1.68 1.58 1.51 1.51 1.44 1.47 1.39 1.33 1.20 1.13 1.20 1.14 1.08
0.84 0.85 0.84 0.86 0.89 1.00 1.15 1.10 1.23 1.33 1.41 1.39 1.27 1.25 1.28 1.27 1.48 1.53 1.37 1.30 1.21 1.14 1.31 1.34 1.35 1.40 1.48 1.48 1.47 1.54 1.60 1.55 1.50 1.45 1.36 1.26 1.21 1.28 1.32 1.22 1.19 1.26 1.20
0.90 0.83 0.80 0.79 0.80 0.83 1.02 0.92 1.03 1.11 1.26 1.39 1.34 1.27 1.43 1.36 1.38 1.33 1.22 1.36 1.30 1.18 1.10 1.08 1.09 1.15 1.18 1.23 1.29 1.30 1.44 1.48 1.41 1.43 1.31 1.25 1.20 1.26 1.32 1.23 1.11 1.11 1.16